When you browse on this site, cookies collect data to enhance your experience and personalize the content and advertising you see.
Visit our Privacy Policy to learn more. By continuing to use the site, you agree to this use of cookies and data.
  • In Österreich
  • Länderverzeichnis
  • Für 7 Tage
  • Wassertemperatur
  • Satellitenkarten
  • Wetterkarte
  • News
  • Widgets
  • user-avatar
    Anmelden

    Stündliche Wetter Luanda

    Heute, 16 Januar, Mittwoch

    Zeit Temperatur Niederschläge Wind Luftdruck Luftfeuchtigkeit
    00:00 +27°C° 0 mm 2 m/S 754 mmHg 81%
    01:00 +27°C° 0 mm 2 m/S 754 mmHg 81%
    02:00 +26°C° 0 mm 1 m/S 754 mmHg 82%
    03:00 +26°C° 0 mm 1 m/S 754 mmHg 83%
    04:00 +26°C° 0 mm 1 m/S 754 mmHg 84%
    05:00 +26°C° 0 mm 2 m/S 754 mmHg 84%
    06:00 +26°C° 0 mm 2 m/S 754 mmHg 84%
    07:00 +27°C° 0 mm 3 m/S 755 mmHg 82%
    08:00 +28°C° 0 mm 2 m/S 755 mmHg 74%
    09:00 +30°C° 0 mm 2 m/S 755 mmHg 66%
    10:00 +32°C° 0 mm 1 m/S 755 mmHg 57%
    11:00 +34°C° 0 mm 2 m/S 754 mmHg 54%
    12:00 +35°C° 0 mm 3 m/S 753 mmHg 50%
    13:00 +35°C° 0 mm 4 m/S 753 mmHg 48%
    14:00 +35°C° 0 mm 4 m/S 752 mmHg 50%
    15:00 +34°C° 0 mm 5 m/S 752 mmHg 53%
    16:00 +34°C° 0 mm 6 m/S 751 mmHg 55%
    17:00 +33°C° 0 mm 5 m/S 752 mmHg 61%
    18:00 +30°C° 0 mm 5 m/S 752 mmHg 67%
    19:00 +29°C° 0 mm 4 m/S 752 mmHg 72%
    20:00 +28°C° 0 mm 3 m/S 753 mmHg 74%
    21:00 +28°C° 0 mm 3 m/S 753 mmHg 76%
    22:00 +28°C° 0 mm 2 m/S 754 mmHg 77%
    23:00 +28°C° 0 mm 2 m/S 754 mmHg 78%

    Morgen, 17 Januar, Donnerstag

    Zeit Temperatur Niederschläge Wind Luftdruck Luftfeuchtigkeit
    00:00 +28°C° 0 mm 1 m/S 754 mmHg 80%
    01:00 +27°C° 0 mm 1 m/S 754 mmHg 81%
    02:00 +27°C° 0 mm 1 m/S 754 mmHg 82%
    03:00 +27°C° 0 mm 1 m/S 753 mmHg 83%
    04:00 +25°C° 0 mm 0 m/S 753 mmHg 85%
    05:00 +27°C° 0 mm 1 m/S 753 mmHg 84%
    06:00 +27°C° 0 mm 1 m/S 753 mmHg 83%
    07:00 +27°C° 0 mm 1 m/S 754 mmHg 82%
    08:00 +29°C° 0 mm 1 m/S 754 mmHg 74%
    09:00 +31°C° 0 mm 1 m/S 754 mmHg 65%
    10:00 +32°C° 0 mm 1 m/S 754 mmHg 57%
    11:00 +34°C° 0 mm 2 m/S 754 mmHg 54%
    12:00 +35°C° 0 mm 4 m/S 753 mmHg 50%
    13:00 +36°C° 0 mm 5 m/S 753 mmHg 47%
    14:00 +36°C° 0 mm 5 m/S 752 mmHg 50%
    15:00 +35°C° 0 mm 6 m/S 752 mmHg 54%
    16:00 +34°C° 0 mm 6 m/S 751 mmHg 58%
    17:00 +33°C° 0 mm 6 m/S 751 mmHg 63%
    18:00 +30°C° 0 mm 6 m/S 752 mmHg 68%
    19:00 +29°C° 0 mm 5 m/S 752 mmHg 73%
    20:00 +29°C° 0 mm 5 m/S 753 mmHg 74%
    21:00 +29°C° 0 mm 5 m/S 753 mmHg 76%
    22:00 +28°C° 0 mm 4 m/S 754 mmHg 77%
    23:00 +28°C° 0 mm 4 m/S 754 mmHg 78%

    übermorgen, 18 Januar, Freitag

    Zeit Temperatur Niederschläge Wind Luftdruck Luftfeuchtigkeit
    00:00 +28°C° 0 mm 4 m/S 754 mmHg 79%
    01:00 +28°C° 0 mm 3 m/S 754 mmHg 81%
    02:00 +27°C° 0 mm 3 m/S 753 mmHg 82%
    03:00 +27°C° 0 mm 2 m/S 753 mmHg 84%
    04:00 +27°C° 0 mm 2 m/S 753 mmHg 85%
    05:00 +27°C° 0 mm 2 m/S 753 mmHg 84%
    06:00 +27°C° 0 mm 2 m/S 754 mmHg 83%
    07:00 +27°C° 0 mm 2 m/S 754 mmHg 82%
    08:00 +29°C° 0 mm 2 m/S 754 mmHg 74%
    09:00 +30°C° 0 mm 2 m/S 754 mmHg 66%
    10:00 +32°C° 0 mm 1 m/S 755 mmHg 59%
    11:00 +34°C° 0 mm 2 m/S 754 mmHg 55%
    12:00 +35°C° 0 mm 3 m/S 754 mmHg 51%
    13:00 +36°C° 0 mm 5 m/S 753 mmHg 48%
    14:00 +35°C° 0 mm 5 m/S 752 mmHg 51%
    15:00 +34°C° 0 mm 6 m/S 752 mmHg 55%
    16:00 +33°C° 0 mm 6 m/S 751 mmHg 59%
    17:00 +32°C° 0 mm 6 m/S 752 mmHg 63%
    18:00 +30°C° 0 mm 5 m/S 752 mmHg 68%
    19:00 +29°C° 0 mm 5 m/S 753 mmHg 72%
    20:00 +28°C° 0 mm 4 m/S 754 mmHg 74%
    21:00 +28°C° 0 mm 4 m/S 754 mmHg 77%
    22:00 +28°C° 0 mm 3 m/S 755 mmHg 79%
    23:00 +28°C° 0 mm 3 m/S 755 mmHg 80%

    19 Januar, Samstag

    Zeit Temperatur Niederschläge Wind Luftdruck Luftfeuchtigkeit
    00:00 +27°C° 0 mm 2 m/S 754 mmHg 81%
    01:00 +27°C° 0 mm 2 m/S 754 mmHg 82%
    02:00 +27°C° 0 mm 2 m/S 754 mmHg 81%
    03:00 +27°C° 0 mm 2 m/S 753 mmHg 81%
    04:00 +27°C° 0 mm 3 m/S 753 mmHg 80%
    05:00 +27°C° 0 mm 3 m/S 753 mmHg 80%
    06:00 +27°C° 0 mm 3 m/S 754 mmHg 79%
    07:00 +27°C° 0 mm 3 m/S 754 mmHg 78%
    08:00 +29°C° 0 mm 2 m/S 754 mmHg 71%
    09:00 +30°C° 0 mm 1 m/S 755 mmHg 63%
    10:00 +30°C° 0 mm 0 m/S 755 mmHg 56%
    11:00 +33°C° 0 mm 1 m/S 754 mmHg 53%
    12:00 +35°C° 0 mm 3 m/S 753 mmHg 50%
    13:00 +36°C° 0 mm 4 m/S 753 mmHg 47%
    14:00 +35°C° 0 mm 5 m/S 752 mmHg 50%
    15:00 +34°C° 0 mm 5 m/S 752 mmHg 52%
    16:00 +34°C° 0 mm 5 m/S 751 mmHg 55%
    17:00 +32°C° 0 mm 5 m/S 752 mmHg 61%
    18:00 +30°C° 0 mm 5 m/S 752 mmHg 66%
    19:00 +29°C° 0 mm 4 m/S 753 mmHg 72%
    20:00 +28°C° 0 mm 4 m/S 754 mmHg 74%
    21:00 +28°C° 0 mm 4 m/S 754 mmHg 75%
    22:00 +28°C° 0 mm 3 m/S 755 mmHg 77%
    23:00 +27°C° 0 mm 3 m/S 754 mmHg 78%

    20 Januar, Sonntag

    Zeit Temperatur Niederschläge Wind Luftdruck Luftfeuchtigkeit
    00:00 +27°C° 0 mm 2 m/S 754 mmHg 80%
    01:00 +27°C° 0 mm 2 m/S 754 mmHg 81%
    02:00 +26°C° 0 mm 2 m/S 754 mmHg 82%
    03:00 +26°C° 0 mm 2 m/S 753 mmHg 83%
    04:00 +26°C° 0 mm 2 m/S 753 mmHg 84%
    05:00 +26°C° 0 mm 2 m/S 754 mmHg 83%
    06:00 +26°C° 0 mm 2 m/S 754 mmHg 82%
    07:00 +26°C° 0 mm 2 m/S 755 mmHg 81%
    08:00 +28°C° 0 mm 2 m/S 755 mmHg 74%
    09:00 +29°C° 0 mm 2 m/S 755 mmHg 66%
    10:00 +31°C° 0 mm 2 m/S 755 mmHg 59%
    11:00 +32°C° 0 mm 2 m/S 755 mmHg 54%
    12:00 +35°C° 0 mm 3 m/S 754 mmHg 49%
    13:00 +36°C° 0 mm 4 m/S 753 mmHg 44%
    14:00 +35°C° 0 mm 5 m/S 753 mmHg 48%
    15:00 +35°C° 0 mm 6 m/S 752 mmHg 53%
    16:00 +34°C° 0 mm 7 m/S 752 mmHg 57%
    17:00 +32°C° 0 mm 6 m/S 752 mmHg 62%
    18:00 +30°C° 0 mm 6 m/S 753 mmHg 67%
    19:00 +29°C° 0 mm 5 m/S 753 mmHg 72%
    20:00 +28°C° 0 mm 5 m/S 754 mmHg 75%
    21:00 +28°C° 0 mm 4 m/S 755 mmHg 77%
    22:00 +28°C° 0 mm 3 m/S 755 mmHg 79%
    23:00 +27°C° 0 mm 3 m/S 755 mmHg 80%

    21 Januar, Montag

    Zeit Temperatur Niederschläge Wind Luftdruck Luftfeuchtigkeit
    00:00 +27°C° 0 mm 3 m/S 755 mmHg 80%
    01:00 +27°C° 0 mm 2 m/S 754 mmHg 81%
    02:00 +27°C° 0 mm 2 m/S 754 mmHg 82%
    03:00 +27°C° 0 mm 2 m/S 754 mmHg 82%
    04:00 +27°C° 0 mm 2 m/S 754 mmHg 83%
    05:00 +27°C° 0 mm 2 m/S 754 mmHg 81%
    06:00 +27°C° 0 mm 3 m/S 755 mmHg 80%
    07:00 +27°C° 0 mm 3 m/S 755 mmHg 78%
    08:00 +29°C° 0 mm 2 m/S 755 mmHg 72%
    09:00 +30°C° 0 mm 2 m/S 755 mmHg 66%
    10:00 +31°C° 0 mm 2 m/S 756 mmHg 60%
    11:00 +32°C° 0 mm 2 m/S 755 mmHg 57%
    12:00 +34°C° 0 mm 3 m/S 754 mmHg 53%
    13:00 +34°C° 0 mm 3 m/S 754 mmHg 50%
    14:00 +34°C° 0 mm 4 m/S 753 mmHg 52%
    15:00 +33°C° 0 mm 4 m/S 752 mmHg 55%
    16:00 +33°C° 0 mm 5 m/S 752 mmHg 58%
    17:00 +32°C° 0 mm 5 m/S 752 mmHg 62%
    18:00 +30°C° 0 mm 4 m/S 752 mmHg 67%
    19:00 +29°C° 0 mm 4 m/S 753 mmHg 72%
    20:00 +28°C° 0 mm 4 m/S 753 mmHg 75%
    21:00 +28°C° 0 mm 3 m/S 754 mmHg 78%
    22:00 +27°C° 0 mm 3 m/S 754 mmHg 81%
    23:00 +27°C° 0 mm 3 m/S 754 mmHg 83%
    Mehr zeigen